| time (UTC) | temp C | wind direction | speed KPH | gust KPH | rain 1hr cm | rain 24hr cm | rain mn cm | humidity % | barometer mb |
| 20260509013059 | 22 | 309 | 0.0 | 14.5 | 0.00 | 0.00 | 0.00 | 35 | 1012.2 |
| 20260509011558 | 22 | 333 | 0.0 | 4.8 | 0.00 | 0.00 | 0.00 | 33 | 1012.3 |
| 20260509004620 | 23 | 324 | 0.0 | 17.7 | 0.00 | 0.00 | 0.00 | 31 | 1012.3 |
| 20260509003055 | 23 | 292 | 0.0 | 20.9 | 0.00 | 0.00 | 0.00 | 29 | 1012.1 |
| 20260509001555 | 24 | 323 | 0.0 | 20.9 | 0.00 | 0.00 | 0.00 | 29 | 1012.3 |
| 20260509000053 | 24 | 43 | 0.0 | 27.4 | 0.00 | 0.00 | 0.00 | 27 | 1012.4 |
| 20260508234552 | 25 | 292 | 0.0 | 14.5 | 0.00 | 0.00 | 0.00 | 32 | 1012.4 |
| 20260508233052 | 25 | 293 | 3.2 | 19.3 | 0.00 | 0.00 | 0.00 | 31 | 1012.3 |
| 20260508231555 | 25 | 313 | 0.0 | 17.7 | 0.00 | 0.00 | 0.00 | 35 | 1012.4 |
| 20260508230051 | 26 | 297 | 1.6 | 16.1 | 0.00 | 0.00 | 0.00 | 34 | 1012.5 |
| 20260508224551 | 26 | 315 | 0.0 | 3.2 | 0.00 | 0.00 | 0.00 | 30 | 1012.6 |
| 20260508223049 | 27 | 355 | 0.0 | 8.0 | 0.00 | 0.00 | 0.00 | 26 | 1012.7 |
| 20260508221543 | 27 | 350 | 0.0 | 14.5 | 0.00 | 0.00 | 0.00 | 24 | 1013.0 |
| 20260508220040 | 28 | 305 | 1.6 | 19.3 | 0.00 | 0.00 | 0.00 | 23 | 1013.3 |
| 20260508214555 | 28 | 5 | 0.0 | 17.7 | 0.00 | 0.00 | 0.00 | 22 | 1013.3 |
| 20260508213037 | 28 | 311 | 0.0 | 25.7 | 0.00 | 0.00 | 0.00 | 23 | 1013.3 |
| 20260508211636 | 28 | 283 | 0.0 | 25.7 | 0.00 | 0.00 | 0.00 | 20 | 1013.4 |
| 20260508210037 | 28 | 316 | 1.6 | 19.3 | 0.00 | 0.00 | 0.00 | 17 | 1013.6 |
| 20260508204536 | 28 | 288 | 1.6 | 20.9 | 0.00 | 0.00 | 0.00 | 22 | 1013.7 |
| 20260508203031 | 28 | 313 | 1.6 | 24.1 | 0.00 | 0.00 | 0.00 | 22 | 1013.6 |
| 20260508201531 | 28 | 351 | 0.0 | 19.3 | 0.00 | 0.00 | 0.00 | 20 | 1013.8 |
| 20260508200037 | 28 | 325 | 0.0 | 22.5 | 0.00 | 0.00 | 0.00 | 23 | 1013.9 |
| 20260508194528 | 28 | 317 | 0.0 | 17.7 | 0.00 | 0.00 | 0.00 | 21 | 1013.9 |
| 20260508193035 | 28 | 360 | 3.2 | 29.0 | 0.00 | 0.00 | 0.00 | 17 | 1014.1 |
| 20260508191532 | 28 | 355 | 1.6 | 30.6 | 0.00 | 0.00 | 0.00 | 19 | 1014.1 |
| 20260508190044 | 27 | 324 | 3.2 | 22.5 | 0.00 | 0.00 | 0.00 | 19 | 1014.0 |
| 20260508184625 | 27 | 303 | 0.0 | 22.5 | 0.00 | 0.00 | 0.00 | 20 | 1014.1 |
| 20260508183033 | 27 | 305 | 0.0 | 14.5 | 0.00 | 0.00 | 0.00 | 19 | 1014.2 |
| 20260508181521 | 27 | 249 | 3.2 | 24.1 | 0.00 | 0.00 | 0.00 | 19 | 1014.3 |
| 20260508180020 | 27 | 265 | 3.2 | 24.1 | 0.00 | 0.00 | 0.00 | 20 | 1014.2 |
| 20260508174518 | 27 | 348 | 0.0 | 22.5 | 0.00 | 0.00 | 0.00 | 20 | 1014.1 |
| 20260508173016 | 26 | 309 | 0.0 | 20.9 | 0.00 | 0.00 | 0.00 | 21 | 1014.3 |
| 20260508171517 | 26 | 293 | 0.0 | 19.3 | 0.00 | 0.00 | 0.00 | 24 | 1014.2 |
| 20260508170011 | 26 | 315 | 1.6 | 19.3 | 0.00 | 0.00 | 0.00 | 26 | 1014.0 |
| 20260508164515 | 25 | 327 | 0.0 | 20.9 | 0.00 | 0.00 | 0.00 | 27 | 1014.1 |
| 20260508163004 | 24 | 305 | 0.0 | 17.7 | 0.00 | 0.00 | 0.00 | 29 | 1014.1 |
| 20260508161606 | 23 | 321 | 0.0 | 14.5 | 0.00 | 0.00 | 0.00 | 32 | 1014.1 |
| 20260508160054 | 21 | 333 | 0.0 | 3.2 | 0.00 | 0.00 | 0.00 | 36 | 1014.0 |
| 20260508154549 | 18 | 321 | 0.0 | 8.0 | 0.00 | 0.00 | 0.00 | 44 | 1014.0 |
| 20260508153053 | 15 | 293 | 0.0 | 0.0 | 0.00 | 0.00 | 0.00 | 54 | 1013.9 |
| 20260508151539 | 13 | 310 | 0.0 | 0.0 | 0.00 | 0.00 | 0.00 | 64 | 1014.0 |
| 20260508150035 | 13 | 96 | 0.0 | 0.0 | 0.00 | 0.00 | 0.00 | 76 | 1014.0 |
| 20260508144533 | 12 | 96 | 0.0 | 0.0 | 0.00 | 0.00 | 0.00 | 76 | 1014.0 |
| 20260508143027 | 11 | 96 | 0.0 | 0.0 | 0.00 | 0.00 | 0.00 | 75 | 1014.0 |
| 20260508141525 | 10 | 96 | 0.0 | 0.0 | 0.00 | 0.00 | 0.00 | 76 | 1014.0 |
| 20260508140025 | 10 | 321 | 0.0 | 0.0 | 0.00 | 0.00 | 0.00 | 76 | 1013.9 |
| 20260508134521 | 9 | 321 | 0.0 | 0.0 | 0.00 | 0.00 | 0.00 | 75 | 1013.7 |
| 20260508133020 | 9 | 321 | 0.0 | 0.0 | 0.00 | 0.00 | 0.00 | 76 | 1013.6 |
| 20260508131519 | 9 | 321 | 0.0 | 0.0 | 0.00 | 0.00 | 0.00 | 75 | 1013.6 |
| 20260508130030 | 9 | 321 | 0.0 | 0.0 | 0.00 | 0.00 | 0.00 | 74 | 1013.4 |
| 20260508124516 | 9 | 321 | 0.0 | 0.0 | 0.00 | 0.00 | 0.00 | 74 | 1013.1 |
| 20260508123017 | 9 | 321 | 0.0 | 0.0 | 0.00 | 0.00 | 0.00 | 74 | 1013.1 |
| 20260508121514 | 9 | 321 | 0.0 | 0.0 | 0.00 | 0.00 | 0.00 | 73 | 1013.1 |
| 20260508120012 | 9 | 321 | 0.0 | 0.0 | 0.00 | 0.00 | 0.00 | 72 | 1013.1 |
| 20260508114510 | 9 | 321 | 0.0 | 0.0 | 0.00 | 0.00 | 0.00 | 70 | 1013.2 |
| 20260508113009 | 10 | 321 | 0.0 | 0.0 | 0.00 | 0.00 | 0.00 | 71 | 1013.2 |
| 20260508111508 | 10 | 321 | 0.0 | 0.0 | 0.00 | 0.00 | 0.00 | 71 | 1013.2 |
| 20260508110005 | 10 | 321 | 0.0 | 0.0 | 0.00 | 0.00 | 0.00 | 70 | 1013.3 |
| 20260508104505 | 10 | 321 | 0.0 | 0.0 | 0.00 | 0.00 | 0.00 | 68 | 1013.4 |
| 20260508103005 | 10 | 321 | 0.0 | 0.0 | 0.00 | 0.00 | 0.00 | 68 | 1013.5 |
| 20260508101502 | 10 | 321 | 0.0 | 0.0 | 0.00 | 0.00 | 0.00 | 68 | 1013.6 |
| 20260508100100 | 10 | 321 | 0.0 | 0.0 | 0.00 | 0.00 | 0.00 | 68 | 1013.6 |
| 20260508094600 | 10 | 321 | 0.0 | 0.0 | 0.00 | 0.00 | 0.00 | 67 | 1013.6 |
| 20260508093106 | 10 | 321 | 0.0 | 0.0 | 0.00 | 0.00 | 0.00 | 67 | 1013.7 |
| 20260508091556 | 10 | 321 | 0.0 | 0.0 | 0.00 | 0.00 | 0.00 | 67 | 1013.9 |
| 20260508090100 | 10 | 321 | 0.0 | 0.0 | 0.00 | 0.00 | 0.00 | 66 | 1014.0 |
| 20260508084553 | 10 | 321 | 0.0 | 0.0 | 0.00 | 0.00 | 0.00 | 67 | 1014.2 |
| 20260508083051 | 10 | 321 | 0.0 | 0.0 | 0.00 | 0.00 | 0.00 | 67 | 1014.2 |
| 20260508081549 | 10 | 321 | 0.0 | 0.0 | 0.00 | 0.00 | 0.00 | 68 | 1014.5 |
| 20260508080047 | 10 | 321 | 0.0 | 0.0 | 0.00 | 0.00 | 0.00 | 68 | 1014.6 |
| 20260508074547 | 10 | 321 | 0.0 | 0.0 | 0.00 | 0.00 | 0.00 | 68 | 1014.8 |
| 20260508073045 | 10 | 321 | 0.0 | 0.0 | 0.00 | 0.00 | 0.00 | 68 | 1014.8 |
| 20260508071544 | 10 | 321 | 0.0 | 0.0 | 0.00 | 0.00 | 0.00 | 65 | 1015.0 |
| 20260508070040 | 10 | 321 | 0.0 | 0.0 | 0.00 | 0.00 | 0.00 | 66 | 1014.9 |
| 20260508064542 | 11 | 321 | 0.0 | 0.0 | 0.00 | 0.00 | 0.00 | 65 | 1015.0 |
| 20260508063056 | 11 | 321 | 0.0 | 0.0 | 0.00 | 0.00 | 0.00 | 64 | 1015.1 |
| 20260508061539 | 11 | 321 | 0.0 | 0.0 | 0.00 | 0.00 | 0.00 | 65 | 1015.1 |
| 20260508060038 | 11 | 321 | 0.0 | 0.0 | 0.00 | 0.00 | 0.00 | 63 | 1015.0 |
| 20260508054538 | 11 | 321 | 0.0 | 0.0 | 0.00 | 0.00 | 0.00 | 61 | 1014.9 |
| 20260508053038 | 11 | 321 | 0.0 | 0.0 | 0.00 | 0.00 | 0.00 | 62 | 1015.0 |
| 20260508051540 | 11 | 323 | 0.0 | 0.0 | 0.00 | 0.00 | 0.00 | 62 | 1015.0 |
| 20260508050039 | 12 | 323 | 0.0 | 0.0 | 0.00 | 0.00 | 0.00 | 62 | 1015.0 |
| 20260508044536 | 12 | 323 | 0.0 | 0.0 | 0.00 | 0.00 | 0.00 | 62 | 1014.9 |
| 20260508043052 | 12 | 323 | 0.0 | 0.0 | 0.00 | 0.00 | 0.00 | 60 | 1014.8 |
| 20260508041545 | 13 | 323 | 0.0 | 0.0 | 0.00 | 0.00 | 0.00 | 59 | 1014.6 |
| 20260508040038 | 14 | 323 | 0.0 | 0.0 | 0.00 | 0.00 | 0.00 | 58 | 1014.4 |
| 20260508034534 | 15 | 323 | 0.0 | 0.0 | 0.00 | 0.00 | 0.00 | 57 | 1014.3 |
| 20260508033033 | 16 | 323 | 0.0 | 0.0 | 0.00 | 0.00 | 0.00 | 57 | 1014.1 |
| 20260508031533 | 17 | 322 | 0.0 | 0.0 | 0.00 | 0.00 | 0.00 | 57 | 1014.0 |
| 20260508030039 | 17 | 322 | 0.0 | 0.0 | 0.00 | 0.00 | 0.00 | 55 | 1013.6 |
| 20260508024532 | 18 | 322 | 0.0 | 0.0 | 0.00 | 0.00 | 0.00 | 53 | 1013.6 |
| 20260508023031 | 18 | 304 | 0.0 | 0.0 | 0.00 | 0.00 | 0.00 | 54 | 1013.3 |
| 20260508021531 | 19 | 322 | 0.0 | 0.0 | 0.00 | 0.00 | 0.00 | 55 | 1013.3 |
| 20260508020038 | 19 | 304 | 0.0 | 0.0 | 0.00 | 0.00 | 0.00 | 56 | 1013.1 |
| 20260508014530 | 20 | 310 | 0.0 | 0.0 | 0.00 | 0.00 | 0.00 | 58 | 1013.1 |